Location: Lincolnton
(35.4660°N, 81.2500°W)
Time: 07:39:11
(UTC-04:00)

HST - Visible Passes

Search period start: 02 September 2014 00:00
Search period end: 12 September 2014 00:00
Orbit: 547 x 552 km, 28.5° (Epoch: 01 September)

Date Brightness Start Highest point End Pass type
(mag) Time Alt. Az. Time Alt. Az. Time Alt. Az.
04 Sep 3.1 21:33:35 10° SSW 21:34:17 13° SSW 21:34:17 13° SSW visible
05 Sep 2.7 21:26:12 10° SW 21:28:03 18° S 21:28:03 18° S visible
06 Sep 2.3 21:18:56 10° SW 21:21:42 23° S 21:21:42 23° S visible
07 Sep 2.0 21:11:44 10° SW 21:15:16 27° S 21:15:16 27° S visible
08 Sep 1.8 21:04:37 10° SW 21:08:15 29° S 21:08:46 28° SSE visible
09 Sep 1.8 20:57:32 10° WSW 21:01:13 30° S 21:02:11 27° SSE visible
10 Sep 1.9 20:50:29 10° WSW 20:54:12 31° S 20:55:35 25° SE visible
11 Sep 1.9 20:43:28 10° WSW 20:47:10 31° S 20:48:57 22° SE visible
